www.pogodaiklimat.ru

Погода и климат >> Архив погоды >> Китай >> Nanyue


ПОГОДА в Nanyue

  • Прогноз погоды в Nanyue
  • Монитор погоды в Nanyue
  • Климат города

АРХИВ ПОГОДЫ в Nanyue

Время (UTC), дата Ветер
(напр.,м/с)
 
Видим.   Явления Облачность Т
(С)
Тd
(С)
f
(%)
Тe
(С)
Тes
(С)
Комфортность P
(гПа)
Po
(гПа)
Тmin
(С)
Tmax
(С)
R
(мм)
R24
(мм)
S
(см)
03 14.10 С 3 <100 м слабый дождь {туман} ?/? +9.7 +9.7 100 +7 +7 1019.8 1020.0
06 14.10 С 5 <100 м слабый дождь {туман} ?/? +9.6 +9.6 100 +6 +6 1017.8 1018.7 +8.0 2
09 14.10 С 4 <100 м слабый дождь {туман} ?/? +9.3 +9.3 100 +6 +6 1018.3 1018.0
12 14.10 С 6 <100 м слабый дождь {туман} ?/? +9.0 +9.0 100 +5 +5 1019.6 1020.0 2
18 14.10 С 5 <100 м туман ?/? +8.6 +8.6 100 +5 +5 1018.3 875.1 +10.0 19
21 14.10 С 4 <100 м туман ?/? +8.2 +8.2 100 +5 +5 1018.2 1018.0
00 15.10 С 5 <100 м слабый дождь ?/? +8.0 +8.0 100 +4 +4 1019.9 1043.2 22
03 15.10 С 4 <100 м слабый дождь {туман} ?/? +8.6 +8.6 100 +5 +5 1020.3 1020.0
06 15.10 С 5 <100 м слабый дождь {туман} ?/? +8.9 +8.9 100 +5 +5 1018.1 1018.0 +7.9 9
09 15.10 С 5 <100 м слабый дождь {туман} ?/? +8.7 +8.7 100 +5 +5 1018.8 1019.0
12 15.10 С 6 <100 м слабый дождь {туман} ?/? +8.6 +8.6 100 +4 +4 1020.3 1020.0 25
18 15.10 С 6 <100 м ?/? +7.9 +7.9 100 +3 +3 1020.6 1021.0 +9.0 29
21 15.10 С 5 <100 м туман ?/? +7.7 +7.7 100 +4 +4 1020.7 1021.0
00 16.10 С 6 <100 м слабый дождь ?/? +7.9 +7.9 100 +3 +3 1022.2 1022.0 28
03 16.10 С 5 <100 м слабый дождь {туман} ?/? +8.7 +8.7 100 +5 +5 1022.5 1023.0
06 16.10 С 3 <100 м слабый дождь {туман} ?/? +8.8 +8.8 100 +6 +6 1021.3 1046.6 +7.7 12
09 16.10 С 5 <100 м слабый дождь {туман} ?/? +8.6 +8.6 100 +5 +5 1021.7 1022.0
12 16.10 С 4 <100 м слабый дождь {туман} ?/? +8.7 +8.7 100 +5 +5 1023.1 878.9 16
18 16.10 С 4 <100 м туман ?/? +8.4 +8.4 100 +5 +5 1023.1 1023.0 +9.1 9
21 16.10 С 5 <100 м туман ?/? +8.3 +8.3 100 +4 +4 1022.6 1023.0
00 17.10 С 6 <100 м слабый дождь ?/? +8.3 +8.3 100 +4 +4 1023.7 879.5 7
03 17.10 С 5 <100 м слабый дождь {туман} ?/? +8.9 +8.9 100 +5 +5 1024.0 830.6
06 17.10 С 4 <100 м слабый дождь {туман} ?/? +9.1 +9.1 100 +6 +6 1021.6 877.8 +8.2 2
09 17.10 С 5 <100 м слабый дождь {туман} ?/? +9.4 +9.4 100 +6 +6 1021.5 1022.0
12 17.10 С 5 <100 м слабый дождь {туман} ?/? +9.0 +9.0 100 +5 +5 1023.3 1023.0 2
18 17.10 С 3 <100 м туман ?/? +9.6 +9.6 100 +7 +7 1022.7 1023.0 +9.7 1
21 17.10 С 4 <100 м туман ?/? +9.1 +9.1 100 +6 +6 1022.2 1022.0
00 18.10 С 3 <100 м слабый дождь ?/? +9.5 +9.5 100 +7 +7 1023.8 879.9 1
03 18.10 С 3 <100 м слабый дождь {туман} ?/? +10.5 +10.5 100 +8 +8 1024.2 831.5
06 18.10 С 4 <100 м слабый дождь {туман} ?/? +10.4 +10.4 100 +8 +8 1021.7 878.5 +8.5 0.7
09 18.10 С 4 <100 м слабый дождь {туман} ?/? +10.1 +10.1 100 +7 +7 1021.7 1022.0
12 18.10 С 3 <100 м слабый дождь {туман} ?/? +9.2 +9.2 100 +7 +7 1023.0 879.3 0.6
18 18.10 С 6 <100 м туман ?/? +8.7 +8.7 100 +5 +5 1022.1 1022.0 +10.8 2
21 18.10 С 5 <100 м туман ?/? +8.2 +8.2 100 +4 +4 1021.7 1022.0
00 19.10 С 5 <100 м слабый дождь ?/? +7.6 +7.6 100 +3 +3 1023.1 1023.0 4
03 19.10 С 2 <100 м туман {дождь} ?/? +10.7 +10.7 100 +9 +9 1022.2 1022.0
06 19.10 С 2 600 м в посл. час туман {дождь} ?/? +11.4 +11.4 100 +10 +10 1019.7 1020.0 +7.6 0.1
09 19.10 С 3 <100 м туман {дождь} ?/? +9.4 +9.4 100 +7 +7 1020.0 1020.0
12 19.10 С 3 <100 м туман {дождь} ?/? +8.6 +8.6 100 +6 +6 1021.0 1021.0 0.1
18 19.10 С 3 <100 м ?/? +9.2 +9.2 100 +7 +7 1020.1 1020.0 +11.9 0.2
21 19.10 С 3 <100 м туман ?/? +9.0 +9.0 100 +6 +6 1020.4 1020.0
00 20.10 С 3 <100 м слабый дождь ?/? +8.6 +8.6 100 +6 +6 1021.8 1022.0 1
03 20.10 С 2 <100 м слабый дождь {туман} 10/10
[]
+10.0 +10.0 100 +8 +8 1021.8 1022.0
06 20.10 С 2 <100 м туман {дождь} ?/? +10.7 +10.7 100 +9 +9 1019.4 1020.8 +8.3 0.2
09 20.10 С 2 <100 м туман ?/? +9.6 +9.6 100 +8 +8 1019.7 1020.0
12 20.10 С 2 <100 м туман ?/? +9.2 +9.2 100 +7 +7 1020.8 1021.0
18 20.10 С 2 <100 м туман ?/? +9.2 +9.2 100 +7 +7 1020.4 1020.0 +11.0 0.1
21 20.10 С 2 <100 м ?/? +8.9 +8.9 100 +7 +7 1020.9 1021.0

 

Местоположение метеостанции Nanyue (Китай): широта 27.30 долгота 112.70 высота над уровнем моря 1268 м.

В архиве по умолчанию представлена погода в Nanyue за последнюю неделю. Архивные данные за месяц целиком и за предыдущие месяцы, начиная с января 2011 года, Вы можете получить, выбрав интересующий диапазон дат из раскрывающегося списка и нажав кнопку "Ввод!".

Внимание! Время в таблицах - всемирное. Для получения местного времени необходимо прибавить поправку, которая в Nanyue равна 8 ч.

Смотрите также архив погоды в соседних городах и на ближайших метеорологических станциях:

Погода в Changsha (Китай) (105 км)
Погода в Shaoyang (Китай) (123 км)
Погода в Lingling (Китай) (161 км)
Погода в Chenzhou (Китай) (170 км)
Погода в Yichun (Китай) (175 км)
Погода в Wugang (Китай) (215 км)
Погода в Changde (Китай) (219 км)
Погода в Jian (Китай) (224 км)
Погода в Yueyang (Китай) (234 км)
Погода в Yuanling (Китай) (261 км)

Пояснения к столбцам:

Ветер - указаны скорость ветра в м/с - средняя за 10 мин, порывы в срок и между сроками (в фигурных скобках) и направление, откуда дует ветер: С - северный, СВ - северо-восточный, В - восточный, ЮВ - юго-восточный, Ю - южный, ЮЗ - юго-западный, З - западный, СЗ - северо-западный.
Видимость - горизонтальная дальность видимости в метрах или километрах. При видимости от 1 до 10 км при отсутствии осадков обычно наблюдается дымка, при ухудшении видимости до 1 км и менее - туман. В сухую погоду видимость может ухудшаться дымом, пылью или мглою.
Явления - указаны атмосферные явления, наблюдавшиеся в срок или в последний час перед сроком; фигурными скобками обозначены явления, наблюдавшиеся между сроками (за 1-3 часа до срока); квадратными скобками обозначены град или гололедные отложения с указанием их диаметра в мм.
Облачность - указаны через наклонную черту общая и нижняя облачность в баллах и высота нижней границы облаков в метрах; квадратными скобками обозначены формы облаков: Ci - перистые, Cs - перисто-слоистые, Cc - перисто-кучевые, Ac - высококучевые, As - высокослоистые, Sc - слоисто-кучевые, Ns - слоисто-дождевые, Cu - кучевые, Cb - кучево-дождевые. Подробнее классификацию облаков см. в Атласе облаков (PDF).
T - Температура воздуха - температура, измеренная на высоте 2 м над землей.
Td - Температура точки росы - температура, при понижении до которой содержащийся в воздухе водяной пар достигнет насыщения.
f - Относительная влажность воздуха - влажноcть воздуха, измеренная на высоте 2 м над землей.
Te - Эффективная температура - температура, которую ощущает одетый по сезону человек в тени. Характеристика душности погоды. При расчете учитывается влияние влажности воздуха и скорости ветра на теплоощущения человека.
Tes - Эффективная температура на солнце - температура, которую ощущает человек, с поправкой на солнечный нагрев. Характеристика знойности погоды. Зависит от высоты солнца над горизонтом, облачности и скорости ветра. Ночью, в пасмурную погоду, а также при ветре 12 м/с и более поправка равна нулю.
P - Атмосферное давление - приведенное к уровню моря атмосферное давление.
Po - Атмосферное давление - измеренное на уровне метеостанции атмосферное давление.
Tmin - Минимальная температура - минимум температуры воздуха на высоте 2 м над землей.
Tmax - Максимальная температура - максимум температуры воздуха на высоте 2 м над землей.
R - Количество осадков - Количество выпавших осадков за период времени, мм. При наведении курсора мыши на число - период времени, за который выпало указанное количество осадков.
R24 - Количество осадков - Количество выпавших осадков за 24 часа, мм.
S - Снежный покров - Высота снежного покрова, см. При наведении курсора мыши на число - состояние снежного покрова и степень покрытия местности в баллах.